SKYSAT-2

Last updated on Wed May 26 2021 10:25:40 GMT+0000 (Coordinated Universal Time)

1 40072U 14037D 21146.09908294 .00000126 00000-0 23589-4 0 9993 2 40072 98.4545 349.3420 0007570 113.2079 246.9930 14.81410204371972

Satellite not in orbit

SKYSAT-2